Regional Weather Roundup
Issued by NWS Charleston, SC

Current Version | Previous Version | Graphics & Text | Print | Product List | Glossary On
Versions: 1 2 3 4 5 6 7 8 9 10 11 12 13 14 15 16 17 18 19 20 21 22 23 24 25 26 27 28 29 30 31 32 33 34 35 36 37 38 39 40 41 42 43 44 45 46 47 48 49 50
390
ASUS42 KCHS 220712
RWRCHS

REGIONAL WEATHER ROUNDUP
NATIONAL WEATHER SERVICE CHARLESTON SC
300 AM EDT THU JUN 22 2017

NOTE: "FAIR" INDICATES FEW OR NO CLOUDS BELOW 12,000 FEET WITH NO
SIGNIFICANT WEATHER AND/OR OBSTRUCTIONS TO VISIBILITY.

NOT ALL STATIONS ARE QUALITY CONTROLLED. USE DATA WITH CAUTION...
ESPECIALLY DEWPOINT OBSERVATIONS.

SCZ027-030-031-034>040-042>050-220800-
...SOUTHEAST SOUTH CAROLINA...

CITY           SKY/WX    TMP DP  RH WIND       PRES   REMARKS
N CHARLESTON   CLOUDY    77  75  93 S3        30.08F
WATERFRONT PRK   N/A     79  78  97 S5        30.07F
JOHNS ISLAND   FAIR      81  79  94 CALM      30.09S
PINOPOLIS        N/A     75  75 100 CALM      30.02F
MONCKS CORNER  FAIR      73  72  94 CALM      30.09F FOG
SUMMERVILLE    FAIR      73  73 100 CALM      30.10S
BEAUFORT MCAS  CLOUDY    79  79 100 S3        30.08F
BEAUFORT ARPT  PTSUNNY   79  77  94 S5        30.07F FOG
HILTON HEAD IS CLOUDY    81  79  94 S8G15     30.08F
WALTERBORO     CLOUDY    73  73 100 CALM      30.09F
ALLENDALE      CLOUDY    75  75 100 CALM      30.08F FOG

...SOUTHERN MIDLANDS AND PEE DEE...

CITY           SKY/WX    TMP DP  RH WIND       PRES   REMARKS
GEORGETOWN     FAIR      73  73 100 CALM      30.10F
KINGSTREE      CLOUDY    72  72 100 CALM      30.09F
ORANGEBURG     CLOUDY    76  75  97 S3        30.09F FOG
BARNWELL       CLOUDY    77  77 100 CALM      30.09F
AIKEN          FAIR      72  72 100 CALM      30.13F
MANNING        PTSUNNY   73  73 100 N9        30.09F
COLUMBIA       MOCLDY    76  72  87 CALM      30.09S
SUMTER         CLOUDY    75  73  94 SW3       30.07F
FLORENCE       PTCLDY    73  73 100 SW6       30.09F
MYRTLE BEACH   CLOUDY    78  76  93 SW3       30.11R
N MYRTLE BEACH CLOUDY    78  76  93 SW8       30.09R

$$

GAZ063-065-086>088-099>101-113>116-118-119-134>141-150-220800-
...SOUTHEAST GEORGIA...

CITY           SKY/WX    TMP DP  RH WIND       PRES   REMARKS
SAVANNAH ARPT  MOCLDY    76  73  91 SE3       30.08F
HUNTER AAF     NOT AVBL
FORT STEWART   MOCLDY    76  75  95 CALM      30.04F
STATESBORO     CLOUDY    75  75 100 CALM      30.08F
SYLVANIA       CLOUDY    75  75 100 CALM      30.10S FOG
CLAXTON        CLOUDY   N/A N/A N/A CALM      30.08F

...CSRA...CENTRAL AND FAR SOUTHEAST GEORGIA...

CITY           SKY/WX    TMP DP  RH WIND       PRES   REMARKS
THOMSON        CLOUDY    74  71  91 W3        30.15F
AUGUSTA-BUSH   CLOUDY    76  73  91 CALM      30.08F
AUGUSTA-DANIEL CLOUDY    76  70  82 SE3       30.10F
SWAINSBORO     CLOUDY    75  75 100 CALM      30.09F
VIDALIA        CLOUDY    77  77 100 CALM      30.08F FOG
EASTMAN        FAIR      78  78 100 CALM      30.09F
HAZLEHURST     FAIR      78  78 100 CALM      30.05F
ALMA           MOCLDY    76  74  93 CALM      30.05F
WAYCROSS       CLOUDY    77  77 100 CALM      30.05F
JESUP          CLOUDY    79  73  83 CALM      30.06F FOG
BAXLEY         DRIZZLE   77  77 100 CALM      30.06F
BRUNSWICK      CLOUDY    81  79  94 CALM      30.06F
SAINT SIMONS   CLOUDY    79  76  90 CALM      30.05F

$$

SCZ027-028-034-036>038-045-046-048>050-GAZ119-141-220800-
...LAKE AND SUPPLEMENTAL COASTAL OBSERVATIONS...

STATION/POSITION TIME  TEMP    WIND        PRES    WAVE   SWELL
                       AIR SEA DIR/SP/G            HT/PER HT/PER/DIR
                 (UTC) (F)     (DEG/KT/KT) (MB)    (FT/S) (FT/S/D)
WINYAH BAY       0545   78     200/  4     1019.0
LAKE MURRAY      0620   77     210/  6/  8 1018.3S
ACE BASIN NERRS  0545   79        CALM     1019.0
FORT PULASKI     0636          180/  5/  7 1018.8F
SAPELO ISLAND    0600   81     160/ 10     1019.0

$$

ANZ835-935-AMZ111-154-330-350-352-354-370-450-454-472-220800-
...C-MAN AND BUOY OBSERVATIONS...

STATION/POSITION TIME  TEMP    WIND        PRES    WAVE   SWELL
                       AIR SEA DIR/SP/G            HT/PER HT/PER/DIR
                 (UTC) (F)     (DEG/KT/KT) (MB)    (FT/S) (FT/S/D)
BUOY 41004       0650   80 81  210/ 10/ 12 1018.6F   3/ 7   3/150/ 7
BUOY 41008       0650   81 81  150/ 10/ 12 1017.9F   3/ 7   2/110/ 7
FOLLY BEACH CMAN 0600   81     200/ 11/ 13 1019.8F
CAPERS NEARSHORE 0608   84 82  210/ 10/ 16 1019.1F
FRIPP NEARSHORE  0608   81 82  190/ 12/ 16 1018.6F


STATION/POSITION TIME  TEMP    WIND        PRES    WAVE   SWELL
                       AIR SEA DIR/SP/G            HT/PER HT/PER/DIR
                 (UTC) (F)     (DEG/KT/KT) (MB)    (FT/S) (FT/S/D)
5E ST. MARYS GA  0630      80                N/A     3/ 8
FRYING PAN BUOY  0650   80 81  200/ 10/ 14 1018.8F   3/ 7   3/150/ 7
BUOY 41025       0650   79 80  230/ 16/ 17 1018.1F   3/ 7   2/170/ 7
CAPE LOOKOUT NC  0600   78     240/  7/ 10 1018.4F
BUOY 41002       0650   81 82  200/ 14/ 16 1020.6F   4/ 7   3/110/ 7
BUOY 41010       0650   82 82  160/ 12/ 14 1019.4F   7/ 8   5/130/ 8
ST AUGUSTINE FL  0700   76 77  130/  3/  3 1019.0F


$$




USA.gov is the U.S. government's official web portal to all federal, state and local government web resources and services.